Location: Cactus School
(34.5700°N, 118.0931°W)
Time: 12:05:13
(UTC-08:00)

Courier 1B - All Passes

Search period start: 21 November 2019 00:00
Search period end: 01 December 2019 00:00
Orbit: 963 x 1209 km, 28.3° (Epoch: 20 November)

Date Brightness Start Highest point End Pass type
(mag) Time Alt. Az. Time Alt. Az. Time Alt. Az.
21 Nov - 03:28:06 10° SSW 03:33:53 25° SSE 03:39:24 10° ESE visible
21 Nov - 05:20:48 10° WSW 05:27:29 45° S 05:33:48 10° E visible
21 Nov - 07:14:39 10° WSW 07:21:12 49° S 07:27:27 10° ESE daylight
21 Nov - 09:09:00 10° WSW 09:14:43 31° SSW 09:20:19 10° SE daylight
21 Nov - 11:05:39 10° SW 11:07:54 12° SSW 11:10:09 10° S daylight
22 Nov - 02:34:57 10° SSW 02:40:12 21° SSE 02:45:15 10° ESE visible
22 Nov - 04:27:04 10° SW 04:33:47 41° SSE 04:40:06 10° E visible
22 Nov - 06:20:47 10° WSW 06:27:31 51° S 06:33:53 10° ESE daylight
22 Nov - 08:15:01 10° W 08:21:08 37° SSW 08:27:02 10° SE daylight
22 Nov - 10:10:30 10° WSW 10:14:23 16° SSW 10:18:15 10° S daylight
23 Nov - 01:42:09 10° S 01:46:31 16° SSE 01:50:45 10° ESE visible
23 Nov - 03:33:25 10° SW 03:40:03 36° SSE 03:46:21 10° E visible
23 Nov - 05:26:54 10° WSW 05:33:48 51° S 05:40:17 10° ESE visible
23 Nov - 07:21:04 10° W 07:27:30 43° SSW 07:33:39 10° ESE daylight
23 Nov - 09:16:00 10° WSW 09:20:52 22° SSW 09:25:38 10° SSE daylight
24 Nov - 00:50:07 10° S 00:52:49 12° SSE 00:55:29 10° SE night (unlit)
24 Nov - 02:39:53 10° SW 02:46:19 31° SSE 02:52:28 10° ESE visible
24 Nov - 04:33:02 10° WSW 04:40:03 49° S 04:46:39 10° E visible
24 Nov - 06:27:07 10° W 06:33:50 48° S 06:40:11 10° ESE daylight
24 Nov - 08:21:45 10° WSW 08:27:19 27° SSW 08:32:42 10° SE daylight
25 Nov - 01:46:31 10° SSW 01:52:35 26° SSE 01:58:26 10° ESE visible
25 Nov - 03:39:12 10° WSW 03:46:17 46° S 03:52:58 10° E visible
25 Nov - 05:33:09 10° WSW 05:40:07 51° S 05:46:40 10° ESE visible
25 Nov - 07:27:37 10° W 07:33:44 34° SSW 07:39:34 10° SE daylight
25 Nov - 09:24:03 10° SW 09:26:55 13° SSW 09:29:46 10° S daylight
26 Nov - 00:53:23 10° SSW 00:58:51 21° SSE 01:04:10 10° ESE night (unlit)
26 Nov - 02:45:26 10° SW 02:52:30 41° SSE 02:59:12 10° E visible
26 Nov - 04:39:12 10° WSW 04:46:22 53° S 04:53:04 10° ESE visible
26 Nov - 06:33:33 10° W 06:40:06 40° SSW 06:46:17 10° SE daylight
26 Nov - 08:29:00 10° WSW 08:33:24 18° SSW 08:37:40 10° SSE daylight
27 Nov - 00:00:40 10° S 00:05:07 16° SSE 00:09:31 10° ESE night (unlit)
27 Nov - 01:51:47 10° SW 01:58:42 36° SSE 02:05:21 10° E visible
27 Nov - 03:45:16 10° WSW 03:52:34 52° S 03:59:26 10° ESE visible
27 Nov - 05:39:31 10° W 05:46:24 46° S 05:52:53 10° ESE visible
27 Nov - 07:34:30 10° WSW 07:39:51 24° SSW 07:45:00 10° SSE daylight
27 Nov - 23:08:50 10° SSE 23:11:24 12° SSE 23:13:58 10° SE night (unlit)
28 Nov - 00:58:16 10° SW 01:04:55 31° SSE 01:11:22 10° E night (unlit)
28 Nov - 02:51:22 10° WSW 02:58:44 50° S 03:05:44 10° E visible
28 Nov - 04:45:30 10° W 04:52:39 50° S 04:59:23 10° ESE visible
28 Nov - 06:40:11 10° W 06:46:15 30° SSW 06:52:01 10° SE daylight
28 Nov - 08:38:58 10° SW 08:39:24 10° SSW 08:39:51 10° SSW daylight
29 Nov - 00:04:58 10° SSW 00:11:09 26° SSE 00:17:13 10° ESE night (unlit)
29 Nov - 01:57:32 10° WSW 02:04:54 46° S 02:11:57 10° E visible
29 Nov - 03:51:29 10° WSW 03:58:51 53° S 04:05:48 10° ESE visible
29 Nov - 05:46:01 10° W 05:52:36 36° SSW 05:58:50 10° SE visible
29 Nov - 07:42:11 10° WSW 07:45:52 15° SSW 07:49:29 10° S daylight
29 Nov - 23:11:57 10° SSW 23:17:23 20° SSE 23:22:48 10° ESE night (unlit)
30 Nov - 01:03:49 10° SW 01:11:03 42° SSE 01:18:05 10° E night (unlit)
30 Nov - 02:57:31 10° WSW 03:05:01 54° S 03:12:08 10° ESE visible
30 Nov - 04:51:53 10° W 04:58:53 43° SSW 05:05:30 10° SE visible
30 Nov - 06:47:16 10° WSW 06:52:19 20° SSW 06:57:09 10° SSE daylight
30 Nov - 22:19:25 10° S 22:23:40 15° SSE 22:27:55 10° ESE night (unlit)
